Location: Chippewa Lake
(41.0698°N, 81.9010°W)
Time: 21:05:04
(UTC+00:00)

Cosmos 1000 Rocket - Pass Details

Date: 09 May 2021
Orbit: 953 x 993 km, 82.9° (Epoch: 16 June)

Event Time Altitude Azimuth Distance (km) Brightness Sun altitude
Exits shadow 07:30:34 50° 183° (S) 1,240 4.6 -24.5°
Maximum altitude 07:32:23 88° 99° (E) 994 4.4 -24.4°
Drops below altitude 10° 07:38:42 10° 8° (N) 2,742 7.7 -23.7°
Sets 07:41:13 0° 8° (N) 3,688 8.5 -23.4°
